Laconia, NH

5:43 AM EDT on March 27, 2017 (GMT -0400)
Laconia Municipal

Weather History for KLCI - November, 2014

Change the Weather History Date:

Thursday, November 20, 2014

  Actual Average Record
Temperature  
Mean Temperature 30 °F -  
Max Temperature 37 °F 42 °F 62 °F (1999)
Min Temperature 24 °F 27 °F 10 °F (1986)
Degree Days  
Heating Degree Days 34    
Moisture  
Dew Point 13 °F    
Average Humidity 48    
Maximum Humidity 59    
Minimum Humidity 40    
Precipitation  
Precipitation 0.00 in - - ()
Sea Level Pressure  
Sea Level Pressure 29.81 in    
Wind  
Wind Speed 11 mph (SW)    
Max Wind Speed 18 mph    
Max Gust Speed 26 mph    
Visibility 10 miles    
Events      
Averages and records for this station are not official NWS values.
T = Trace of Precipitation, MM = Missing Value Source: NWS Daily Summary

Daily Weather History Graph

Daily Weather History Graph

Search for Another Location

Airport or City:

Trip Planner

Search our weather history database for the weather conditions in past years. The results will help you decide how hot, cold, wet, or windy it might be!

Date:

Astronomy

Nov. 20, 2014 Rise Set
Actual Time 6:45 AM EST 4:16 PM EST
Civil Twilight 6:14 AM EST 4:47 PM EST
Nautical Twilight 5:39 AM EST 5:22 PM EST
Astronomical Twilight 5:05 AM EST 5:56 PM EST
Moon 4:33 AM EST (11/20) 3:21 PM EST (11/20)
Length of Visible Light 10h 33m
Length of Day
9h 30m
Waning Crescent, 4% of the Moon is Illuminated
Nov 20
Waning Crescent
Nov 22
New
Nov 29
First Quarter
Dec 6
Full
Dec 14
Last Quarter

Hourly Weather History & Observations

Time (EST) Temp. Windchill Dew Point Humidity Pressure Visibility Wind Dir Wind Speed Gust Speed Precip Events Conditions
12:15 AM 26.6 °F 14.7 °F 8.6 °F 47% 29.96 in 10.0 mi SSW 15.0 mph 21.9 mph N/A   Overcast
12:35 AM 26.6 °F 13.8 °F 10.4 °F 51% 29.95 in 10.0 mi SW 17.3 mph 20.7 mph N/A   Overcast
12:55 AM 26.6 °F 14.3 °F 10.4 °F 51% 29.93 in 10.0 mi SSW 16.1 mph 24.2 mph N/A   Mostly Cloudy
1:15 AM 26.6 °F 15.2 °F 10.4 °F 51% 29.93 in 10.0 mi SSW 13.8 mph - N/A   Mostly Cloudy
1:35 AM 26.6 °F 14.7 °F 10.4 °F 51% 29.93 in 10.0 mi SSW 15.0 mph - N/A   Overcast
1:55 AM 26.6 °F 14.7 °F 10.4 °F 51% 29.92 in 10.0 mi SW 15.0 mph 19.6 mph N/A   Overcast
2:15 AM 26.6 °F 15.7 °F 12.2 °F 55% 29.91 in 10.0 mi SSW 12.7 mph - N/A   Overcast
2:35 AM 26.6 °F 17.5 °F 12.2 °F 55% 29.90 in 10.0 mi SSW 9.2 mph - N/A   Overcast
2:55 AM 26.6 °F 17.5 °F 12.2 °F 55% 29.90 in 10.0 mi SSW 9.2 mph - N/A   Overcast
3:15 AM 26.6 °F 17.5 °F 12.2 °F 55% 29.88 in 10.0 mi SSW 9.2 mph - N/A   Overcast
3:35 AM 26.6 °F 19.1 °F 12.2 °F 55% 29.88 in 10.0 mi SSW 6.9 mph - N/A   Partly Cloudy
3:55 AM 24.8 °F 16.9 °F 12.2 °F 59% 29.88 in 10.0 mi SSW 6.9 mph - N/A   Clear
4:15 AM 24.8 °F 17.9 °F 12.2 °F 59% 29.87 in 10.0 mi SSW 5.8 mph - N/A   Clear
4:35 AM 24.8 °F 16.9 °F 10.4 °F 54% 29.87 in 10.0 mi SSW 6.9 mph - N/A   Clear
4:55 AM 24.8 °F 17.9 °F 10.4 °F 54% 29.86 in 10.0 mi SW 5.8 mph - N/A   Scattered Clouds
5:15 AM 24.8 °F 16.9 °F 10.4 °F 54% 29.85 in 10.0 mi SW 6.9 mph - N/A   Overcast
5:35 AM 24.8 °F 16.9 °F 10.4 °F 54% 29.85 in 10.0 mi SSW 6.9 mph - N/A   Overcast
5:55 AM 26.6 °F 20.0 °F 10.4 °F 51% 29.84 in 10.0 mi SW 5.8 mph - N/A   Overcast
6:15 AM 26.6 °F 19.1 °F 10.4 °F 51% 29.84 in 10.0 mi SW 6.9 mph - N/A   Overcast
6:35 AM 26.6 °F 19.1 °F 10.4 °F 51% 29.83 in 10.0 mi SW 6.9 mph - N/A   Overcast
6:55 AM 26.6 °F 18.2 °F 10.4 °F 51% 29.83 in 10.0 mi SSW 8.1 mph - N/A   Overcast
7:15 AM 26.6 °F 17.5 °F 10.4 °F 51% 29.83 in 10.0 mi SSW 9.2 mph - N/A   Mostly Cloudy
7:35 AM 26.6 °F 19.1 °F 12.2 °F 55% 29.82 in 10.0 mi SSW 6.9 mph - N/A   Mostly Cloudy
7:55 AM 28.4 °F 24.6 °F 12.2 °F 51% 29.82 in 10.0 mi SSW 3.5 mph - N/A   Mostly Cloudy
8:15 AM 30.2 °F 21.3 °F 12.2 °F 47% 29.82 in 10.0 mi SSW 10.4 mph 16.1 mph N/A   Overcast
8:35 AM 28.4 °F 22.2 °F 12.2 °F 51% 29.81 in 10.0 mi SW 5.8 mph - N/A   Overcast
8:55 AM 30.2 °F 22.6 °F 12.2 °F 47% 29.82 in 10.0 mi SW 8.1 mph - N/A   Mostly Cloudy
9:15 AM 30.2 °F 21.9 °F 12.2 °F 47% 29.81 in 10.0 mi SW 9.2 mph - N/A   Mostly Cloudy
9:35 AM 30.2 °F 21.3 °F 15.8 °F 55% 29.80 in 10.0 mi SSW 10.4 mph - N/A   Clear
9:55 AM 33.8 °F 25.3 °F 15.8 °F 48% 29.79 in 10.0 mi SSW 11.5 mph - N/A   Clear
10:15 AM 33.8 °F 26.4 °F 15.8 °F 48% 29.78 in 10.0 mi SW 9.2 mph - N/A   Clear
10:35 AM 33.8 °F 27.0 °F 15.8 °F 48% 29.78 in 10.0 mi SW 8.1 mph - N/A   Clear
10:55 AM 35.6 °F 29.2 °F 15.8 °F 44% 29.77 in 10.0 mi SW 8.1 mph - N/A   Clear
11:15 AM 35.6 °F 28.6 °F 17.6 °F 48% 29.76 in 10.0 mi SSW 9.2 mph - N/A   Partly Cloudy
11:35 AM 37.4 °F 28.9 °F 17.6 °F 45% 29.74 in 10.0 mi WSW 13.8 mph 18.4 mph N/A   Mostly Cloudy
11:55 AM 35.6 °F 27.5 °F 15.8 °F 44% 29.73 in 10.0 mi WSW 11.5 mph - N/A   Scattered Clouds
12:15 PM 37.4 °F 30.3 °F 17.6 °F 45% 29.72 in 10.0 mi West 10.4 mph 16.1 mph N/A   Scattered Clouds
12:35 PM 37.4 °F 29.8 °F 17.6 °F 45% 29.72 in 10.0 mi WSW 11.5 mph 20.7 mph N/A   Partly Cloudy
12:55 PM 37.4 °F 28.9 °F 15.8 °F 41% 29.71 in 10.0 mi WSW 13.8 mph 21.9 mph N/A   Mostly Cloudy
1:15 PM 37.4 °F 28.9 °F 15.8 °F 41% 29.71 in 10.0 mi West 13.8 mph - N/A   Overcast
1:35 PM 37.4 °F 27.8 °F 15.8 °F 41% 29.71 in 10.0 mi WSW 17.3 mph 24.2 mph N/A   Overcast
1:55 PM 37.4 °F 28.2 °F 15.8 °F 41% 29.71 in 10.0 mi SW 16.1 mph - N/A   Overcast
2:15 PM 37.4 °F 28.9 °F 15.8 °F 41% 29.71 in 10.0 mi WSW 13.8 mph - N/A   Overcast
2:35 PM 37.4 °F 30.3 °F 15.8 °F 41% 29.71 in 10.0 mi West 10.4 mph 17.3 mph N/A   Overcast
2:55 PM 37.4 °F 29.8 °F 15.8 °F 41% 29.72 in 10.0 mi WNW 11.5 mph 21.9 mph N/A   Overcast
3:15 PM 35.6 °F 28.6 °F 17.6 °F 48% 29.73 in 10.0 mi WNW 9.2 mph - N/A   Overcast
3:35 PM 35.6 °F 25.2 °F 17.6 °F 48% 29.73 in 10.0 mi West 18.4 mph 26.5 mph N/A   Mostly Cloudy
3:55 PM 35.6 °F 28.0 °F 15.8 °F 44% 29.74 in 10.0 mi West 10.4 mph 23.0 mph N/A   Overcast
4:15 PM 35.6 °F 27.1 °F 15.8 °F 44% 29.75 in 10.0 mi West 12.7 mph 18.4 mph N/A   Mostly Cloudy
4:35 PM 33.8 °F 27.7 °F 15.8 °F 48% 29.76 in 10.0 mi West 6.9 mph - N/A   Overcast
4:55 PM 33.8 °F 23.9 °F 15.8 °F 48% 29.77 in 10.0 mi WSW 15.0 mph 25.3 mph N/A   Overcast
5:15 PM 33.8 °F 27.0 °F 14.0 °F 44% 29.78 in 10.0 mi West 8.1 mph - N/A   Overcast
5:35 PM 32.0 °F 24.2 °F 14.0 °F 48% 29.78 in 10.0 mi West 9.2 mph - N/A   Mostly Cloudy
5:55 PM 32.0 °F 24.8 °F 14.0 °F 48% 29.78 in 10.0 mi West 8.1 mph - N/A   Partly Cloudy
6:15 PM 32.0 °F 24.8 °F 14.0 °F 48% 29.79 in 10.0 mi West 8.1 mph - N/A   Scattered Clouds
6:35 PM 30.2 °F 21.9 °F 12.2 °F 47% 29.80 in 10.0 mi WSW 9.2 mph - N/A   Scattered Clouds
6:55 PM 30.2 °F 24.3 °F 12.2 °F 47% 29.80 in 10.0 mi WSW 5.8 mph - N/A   Partly Cloudy
7:15 PM 30.2 °F 20.8 °F 12.2 °F 47% 29.81 in 10.0 mi West 11.5 mph - N/A   Partly Cloudy
7:35 PM 30.2 °F 22.6 °F 10.4 °F 44% 29.81 in 10.0 mi West 8.1 mph 18.4 mph N/A   Clear
7:55 PM 30.2 °F 20.8 °F 8.6 °F 40% 29.81 in 10.0 mi West 11.5 mph 18.4 mph N/A   Clear
8:15 PM 30.2 °F 21.9 °F 8.6 °F 40% 29.81 in 10.0 mi West 9.2 mph 16.1 mph N/A   Clear
8:35 PM 30.2 °F 20.8 °F 8.6 °F 40% 29.82 in 10.0 mi WSW 11.5 mph 17.3 mph N/A   Clear
8:55 PM 30.2 °F 20.8 °F 8.6 °F 40% 29.82 in 10.0 mi West 11.5 mph 19.6 mph N/A   Clear
9:15 PM 28.4 °F 18.5 °F 8.6 °F 43% 29.83 in 10.0 mi WSW 11.5 mph 21.9 mph N/A   Clear
9:35 PM 28.4 °F 18.0 °F 8.6 °F 43% 29.83 in 10.0 mi WSW 12.7 mph 17.3 mph N/A   Clear
9:55 PM 28.4 °F 21.2 °F 8.6 °F 43% 29.83 in 10.0 mi WSW 6.9 mph - N/A   Clear
10:15 PM 28.4 °F 20.4 °F 8.6 °F 43% 29.83 in 10.0 mi SW 8.1 mph - N/A   Partly Cloudy
10:35 PM 26.6 °F 15.2 °F 8.6 °F 47% 29.83 in 10.0 mi SW 13.8 mph - N/A   Partly Cloudy
10:55 PM 28.4 °F 18.0 °F 8.6 °F 43% 29.83 in 10.0 mi WSW 12.7 mph 19.6 mph N/A   Clear
11:15 PM 26.6 °F 15.7 °F 8.6 °F 47% 29.84 in 10.0 mi SW 12.7 mph 16.1 mph N/A   Clear
11:35 PM 26.6 °F 17.5 °F 8.6 °F 47% 29.84 in 10.0 mi SW 9.2 mph - N/A   Clear
11:55 PM 26.6 °F 17.5 °F 8.6 °F 47% 29.84 in 10.0 mi SW 9.2 mph - N/A   Clear